7 * 24
多渠道服务支持
STARLINK-36043是美国SpaceX公司星链(Starlink)星座的一颗低轨通信卫星,于2025年12月4日发射入轨。作为星链全球组网的组成部分,它运行在近地轨道,依托星链成熟的相控阵天线与激光星间链路技术,为全球偏远地区提供高速低延迟宽带互联网接入。该卫星延续了星链迭代后的技术设计,配备氩霍尔推进系统支持轨道机动,加入后进一步扩充了星链星座规模,助力实现全球无缝覆盖的卫星通信网络目标。
美国
(US)
| 数据来源 | 国际轨道数据 |
| 星历时间: | 2026-06-12T10:44:57+0800 1天前 查看轨道信息 |
| 半长轴: | 6840.847km |
| 偏心率: | 0.0001634 |
| 轨道倾角: | 53.161° |
| 近地点辐角 | 73.702° |
| 升交点赤经 | 304.681° |
| 平近点角 | 286.416° |
| 近地点: | 461.592km |
| 远地点: | 463.828km |
| 周期: | 93.848分钟 |
| 每日圈数: | 15.343979 |